Regional Weather Roundup
Issued by NWS Cleveland, OH

Home | Current Version | Previous Version | Text Only | Print | Product List | Glossary Off
Versions: 1 2 3 4 5 6 7 8 9 10 11 12 13 14 15 16 17 18 19 20 21 22 23 24 25 26 27 28 29 30 31 32 33 34 35 36 37 38 39 40 41 42 43 44 45 46 47 48 49 50

000
ASUS41 KCLE 230710
RWRCLE
OHIO REGIONAL WEATHER ROUNDUP
NATIONAL WEATHER SERVICE WILMINGTON, OH
300 AM EDT WED APR 23 2014

NOTE: "FAIR" INDICATES FEW OR NO CLOUDS BELOW 12,000 FEET WITH NO
SIGNIFICANT WEATHER AND/OR OBSTRUCTIONS TO VISIBILITY.

OHZ001>008-015>018-024>027-034-035-043-044-230800-
   NORTHWEST OHIO

CITY           SKY/WX    TMP DP  RH WIND       PRES   REMARKS
DEFIANCE       CLEAR     38  27  64 N9        29.99S
FINDLAY        CLEAR     37  29  72 NW6       29.95S
TOLEDO EXPRESS CLEAR     38  27  64 N12       29.97R
TOLEDO METCALF CLEAR     40  27  59 NW15G24   29.98S
LIMA           CLEAR     39  30  70 NW9       29.96S
$$

OHZ009>014-019>023-028>033-038-089-230800-
   NORTHEAST OHIO

CITY           SKY/WX    TMP DP  RH WIND       PRES   REMARKS
CLE-HOPKINS    CLOUDY    43  32  65 NW16      29.93F
CLE-LAKEFRONT  CLOUDY    41  35  79 NW17      29.90R
CUY CO. ARPT   NOT AVBL
LORAIN-ELYRIA  CLOUDY    44  33  65 N13       29.92S
ASHTABULA      LGT RAIN  37  32  82 NW9G20    29.87R
AKRON-CANTON   CLOUDY    41  32  70 N15       29.88S
WOOSTER        CLOUDY    41  31  67 N13       29.91R
MANSFIELD      CLOUDY    41  31  67 NW9       29.91S
YOUNGSTOWN     CLOUDY    38  33  82 NW9       29.85F
$$

OHZ042-051>053-060>062-070>072-077>081-230800-
  SOUTHWEST OHIO

CITY           SKY/WX    TMP DP  RH WIND       PRES   REMARKS
CINC-COVINGTON CLEAR     42  32  67 NW6       29.99R
CINC-LUNKEN    CLEAR     44  31  60 NW5       30.00S
HAMILTON       CLEAR     42  32  67 NW7       30.00S
DAYTON         CLEAR     41  31  67 NW10      29.98S
WRIGHT-PAT AFB CLEAR     41  31  67 NW8       29.97R
DAYTON GENERAL CLEAR     41  32  70 NW6       29.96S
WILMINGTON     CLEAR     40  29  64 N7        29.96R
$$

OHZ036-037-039>041-045>050-054>059-063>069-073>076-082>088-230800-
  CENTRAL AND SOUTHEAST OHIO

CITY           SKY/WX    TMP DP  RH WIND       PRES   REMARKS
COLUMBUS       MOCLDY    44  30  57 NW12      29.93S
OSU AIRPORT    PTCLDY    40  31  70 NW8       29.94S
BOLTON FIELD   CLEAR     39  32  76 NW7       29.95R
RICKENBACK AFB CLEAR     44  29  56 NW8       29.93S
NEWARK         CLOUDY    44  29  55 NW9       29.91S
MARION         CLEAR     41  28  60 N15       29.94S
LANCASTER      MOCLDY    43  31  62 NW8       29.93S
ZANESVILLE     CLOUDY    45  30  55 NW15G21   29.89S
NEW PHILLY     CLOUDY    44  31  60 N16G22    29.89S
$$



USA.gov is the U.S. government's official web portal to all federal, state and local government web resources and services.